Weather reports worldwide

Advertisment
Jaen, Spain (8417): temperature & dewpoint: 20.09.2018 17:00:00 - 26.09.2018 17:00:00 (CEST)Jaen, Spain (8417): wind speed: 20.09.2018 17:00:00 - 26.09.2018 17:00:00 (CEST)Jaen, Spain (8417): wind direction: 20.09.2018 17:00:00 - 26.09.2018 17:00:00 (CEST)Jaen, Spain (8417): reduced air pressure: 20.09.2018 17:00:00 - 26.09.2018 17:00:00 (CEST)Jaen, Spain (8417): visibility: 20.09.2018 17:00:00 - 26.09.2018 17:00:00 (CEST)Jaen, Spain (8417): precipitation: 20.09.2018 17:00:00 - 26.09.2018 17:00:00 (CEST)
Date & Time tt [°C] td [°C] ff [km/h] ff [kn] dd ppp [hPa] vv [km] rr [mm]
26.09.2018 17:00:00 28,4 13,9 15 8 ESE 1021,0 20 -
26.09.2018 16:00:00 28,6 14,8 15 8 ESE 1021,2 20 0,0
26.09.2018 15:00:00 29,3 15,1 13 7 ESE 1021,7 20 0,0
26.09.2018 14:00:00 28,2 15,1 11 6 ESE 1022,6 20 -
26.09.2018 13:00:00 26,8 14,9 8 4 SE 1023,1 20 0,0
26.09.2018 12:00:00 25,0 15,0 16 9 ESE 1023,7 20 0,0
26.09.2018 11:00:00 25,3 15,6 16 9 ESE 1023,4 20 -
26.09.2018 10:00:00 23,5 15,5 16 9 SE 1023,5 20 0,0
26.09.2018 09:00:00 22,7 15,8 11 6 SE 1023,2 20 0,0
26.09.2018 08:00:00 21,6 15,9 5 3 SE 1023,0 20 -
26.09.2018 07:00:00 21,5 15,3 5 3 WNW 1022,0 20 0,0
26.09.2018 06:00:00 22,5 15,3 4 2 E 1021,6 20 0,0
26.09.2018 05:00:00 23,5 15,5 9 5 S 1021,0 20 -
26.09.2018 04:00:00 24,0 15,8 15 8 SE 1021,0 20 0,0
26.09.2018 03:00:00 24,1 15,6 9 5 SSE 1021,1 20 0,0
26.09.2018 02:00:00 24,6 15,5 16 9 SSE 1020,7 20 -
26.09.2018 01:00:00 25,4 15,1 21 11 SSE 1020,3 20 0,0
26.09.2018 00:00:00 26,2 14,0 16 9 S 1019,5 20 0,0
25.09.2018 23:00:00 27,3 12,5 16 9 SE 1019,0 20 -
25.09.2018 22:00:00 26,8 11,7 8 4 SSE 1018,2 20 0,0
25.09.2018 21:00:00 27,9 12,3 11 6 W 1017,5 20 0,0
25.09.2018 20:00:00 29,4 9,5 9 5 WSW 1016,9 20 -
25.09.2018 19:00:00 31,8 9,9 4 2 W 1016,2 20 0,0
25.09.2018 18:00:00 32,8 8,9 4 2 WNW 1016,2 20 0,0
25.09.2018 17:00:00 33,5 9,5 4 2 NW 1016,1 20 -
25.09.2018 16:00:00 32,9 10,3 5 3 NNW 1016,8 20 0,0
25.09.2018 15:00:00 32,7 11,3 4 2 NNE 1017,4 20 0,0
25.09.2018 14:00:00 31,1 11,0 5 3 N 1018,6 20 -
25.09.2018 13:00:00 29,9 11,4 4 2 N 1019,4 20 0,0
25.09.2018 12:00:00 28,9 10,5 5 3 NE 1019,8 16 0,0
25.09.2018 11:00:00 27,8 10,9 5 3 NE 1019,8 20 -
25.09.2018 10:00:00 26,5 10,6 4 2 E 1019,7 20 0,0
25.09.2018 09:00:00 23,8 10,5 8 4 S 1019,8 20 0,0
25.09.2018 08:00:00 22,2 9,4 8 4 S 1019,8 20 -
25.09.2018 07:00:00 21,1 9,7 4 2 SW 1019,7 20 0,0
25.09.2018 06:00:00 21,7 9,2 4 2 S 1019,6 20 0,0
25.09.2018 05:00:00 22,0 9,5 8 4 S 1019,6 20 -
25.09.2018 04:00:00 22,7 9,5 4 2 SW 1019,7 20 0,0
25.09.2018 03:00:00 23,6 9,6 4 2 W 1019,5 20 0,0
25.09.2018 02:00:00 24,7 9,4 4 2 WNW 1019,0 20 -
25.09.2018 01:00:00 24,8 9,5 4 2 WSW 1019,0 20 0,0
25.09.2018 00:00:00 26,0 8,9 4 2 W 1018,9 20 0,0
24.09.2018 23:00:00 27,5 8,9 13 7 S 1017,7 20 -
24.09.2018 22:00:00 26,6 9,0 5 3 SSW 1017,5 20 0,0
24.09.2018 21:00:00 27,7 8,5 5 3 SW 1016,9 20 0,0
24.09.2018 20:00:00 29,5 9,1 4 2 SW 1016,3 20 -
24.09.2018 19:00:00 32,0 11,2 2 1 N 1015,7 20 0,0
24.09.2018 18:00:00 33,3 10,6 4 2 E 1015,5 20 0,0
24.09.2018 17:00:00 34,2 10,7 4 2 NNE 1015,7 20 -
24.09.2018 16:00:00 34,0 10,6 8 4 NE 1016,3 20 0,0
24.09.2018 15:00:00 33,3 10,6 5 3 ENE 1017,3 20 0,0
24.09.2018 14:00:00 32,2 10,3 4 2 ENE 1018,5 20 -
24.09.2018 13:00:00 30,7 11,1 5 3 NE 1019,6 20 0,0
24.09.2018 12:00:00 29,6 9,7 4 2 ENE 1020,0 20 0,0
24.09.2018 11:00:00 27,8 13,0 4 2 ENE 1020,3 20 -
24.09.2018 10:00:00 26,3 11,2 4 2 E 1020,2 20 0,0
24.09.2018 09:00:00 23,1 9,8 2 1 WNW 1020,4 20 0,0
24.09.2018 08:00:00 21,3 8,2 5 3 SW 1020,4 20 -
24.09.2018 07:00:00 22,2 8,7 5 3 WSW 1020,0 20 0,0
24.09.2018 06:00:00 22,3 8,8 4 2 W 1019,8 20 0,0
24.09.2018 05:00:00 22,5 8,9 2 1 W 1019,9 20 -
24.09.2018 04:00:00 22,5 9,3 4 2 SSW 1020,2 20 0,0
24.09.2018 03:00:00 23,4 9,0 4 2 WSW 1020,4 20 0,0
24.09.2018 02:00:00 25,1 8,6 4 2 W 1020,3 20 -
24.09.2018 01:00:00 27,0 7,9 9 5 WSW 1020,0 20 0,0
24.09.2018 00:00:00 28,6 8,3 18 10 S 1019,1 20 0,0
23.09.2018 23:00:00 29,3 7,8 18 10 SSE 1018,8 20 -
23.09.2018 22:00:00 28,9 8,0 11 6 SSE 1018,6 20 0,0
23.09.2018 21:00:00 27,8 8,1 9 5 S 1018,3 20 0,0
23.09.2018 20:00:00 29,2 8,3 9 5 S 1017,8 20 -
23.09.2018 19:00:00 31,7 9,8 2 1 E 1017,3 20 0,0
23.09.2018 18:00:00 32,8 8,9 5 3 ESE 1017,0 20 0,0
23.09.2018 17:00:00 33,4 8,8 8 4 ESE 1017,1 20 -
23.09.2018 16:00:00 33,9 10,5 8 4 SW 1017,5 20 0,0
23.09.2018 15:00:00 32,7 10,7 5 3 ENE 1018,7 20 0,0
23.09.2018 14:00:00 31,4 10,1 8 4 N 1019,9 14 -
23.09.2018 13:00:00 30,2 12,1 4 2 N 1020,6 16 0,0
23.09.2018 12:00:00 28,8 11,8 4 2 NE 1021,2 20 0,0
23.09.2018 11:00:00 27,9 11,4 5 3 ESE 1021,7 20 -
23.09.2018 10:00:00 26,4 10,5 8 4 ESE 1021,6 20 0,0
23.09.2018 09:00:00 24,1 11,4 5 3 SSE 1021,2 20 0,0
23.09.2018 08:00:00 22,8 10,9 11 6 S 1021,3 20 -
23.09.2018 07:00:00 20,8 10,3 4 2 S 1021,9 20 0,0
23.09.2018 06:00:00 21,3 10,7 4 2 WSW 1021,7 20 0,0
23.09.2018 05:00:00 22,0 9,8 5 3 WSW 1021,3 19 -
23.09.2018 04:00:00 22,6 9,7 4 2 SW 1021,4 20 0,0
23.09.2018 03:00:00 24,8 9,5 4 2 NW 1021,4 20 0,0
23.09.2018 02:00:00 25,3 10,3 11 6 S 1021,2 20 -
23.09.2018 01:00:00 27,8 9,6 9 5 WNW 1020,8 20 0,0
23.09.2018 00:00:00 28,4 10,6 15 8 S 1020,3 19 0,0
22.09.2018 23:00:00 28,3 9,6 15 8 S 1020,1 18 -
22.09.2018 22:00:00 27,2 8,6 11 6 S 1019,8 20 0,0
22.09.2018 21:00:00 27,6 8,5 9 5 S 1019,1 20 0,0
22.09.2018 20:00:00 29,4 11,0 5 3 SSW 1018,5 20 -
22.09.2018 19:00:00 32,1 10,2 4 2 NNE 1017,6 20 0,0
22.09.2018 18:00:00 33,0 10,9 5 3 N 1017,4 20 0,0
22.09.2018 17:00:00 33,7 11,5 5 3 SSW 1017,5 20 -
22.09.2018 16:00:00 33,5 11,9 4 2 NNE 1018,1 20 0,0
22.09.2018 15:00:00 32,7 12,9 5 3 NNW 1018,9 20 0,0
22.09.2018 14:00:00 31,5 13,7 5 3 NNE 1019,6 20 -
22.09.2018 13:00:00 30,1 13,8 4 2 ENE 1020,5 20 0,0
22.09.2018 12:00:00 29,2 13,4 5 3 ENE 1020,7 20 0,0
22.09.2018 11:00:00 27,8 15,1 5 3 ENE 1020,7 20 -
22.09.2018 10:00:00 26,3 12,7 8 4 SSE 1020,6 20 0,0
22.09.2018 09:00:00 22,2 14,3 2 1 SSW 1021,1 20 0,0
22.09.2018 08:00:00 21,2 13,4 4 2 SW 1020,9 20 -
22.09.2018 07:00:00 21,3 13,5 4 2 WSW 1020,3 20 0,0
22.09.2018 06:00:00 21,9 13,3 4 2 SW 1019,7 20 0,0
22.09.2018 05:00:00 23,3 12,6 4 2 SW 1019,1 20 -
22.09.2018 04:00:00 24,2 13,1 9 5 SW 1018,9 20 0,0
22.09.2018 03:00:00 23,2 13,1 4 2 SSW 1019,5 20 0,0
22.09.2018 02:00:00 23,7 13,0 4 2 SW 1019,5 20 -
22.09.2018 01:00:00 25,7 13,2 8 4 SSW 1018,9 20 0,0
22.09.2018 00:00:00 24,6 12,9 8 4 SW 1018,7 20 0,0
21.09.2018 23:00:00 25,9 12,7 9 5 SW 1018,1 20 -
21.09.2018 22:00:00 25,2 13,1 8 4 SW 1017,8 20 0,0
21.09.2018 21:00:00 26,1 12,9 5 3 SW 1016,8 20 0,0
21.09.2018 20:00:00 27,9 13,8 5 3 WSW 1016,0 20 -
21.09.2018 19:00:00 30,2 14,3 5 3 WNW 1015,1 20 0,0
21.09.2018 18:00:00 30,6 12,9 4 2 N 1015,0 20 0,0
21.09.2018 17:00:00 31,4 12,7 5 3 E 1015,0 20 -
21.09.2018 16:00:00 30,7 14,3 4 2 E 1015,5 20 0,0
21.09.2018 15:00:00 29,5 14,5 4 2 N 1016,4 20 0,0
21.09.2018 14:00:00 29,0 15,9 5 3 NNE 1017,4 20 -
21.09.2018 13:00:00 28,0 16,6 5 3 N 1018,1 20 0,0
21.09.2018 12:00:00 26,7 16,6 8 4 N 1018,6 20 0,0
21.09.2018 11:00:00 24,8 16,0 5 3 E 1018,5 20 -
21.09.2018 10:00:00 22,9 15,5 9 5 ESE 1018,8 20 0,0
21.09.2018 09:00:00 20,4 16,0 2 1 WNW 1019,3 20 0,0
21.09.2018 08:00:00 19,3 15,4 4 2 S 1018,8 20 -
21.09.2018 07:00:00 19,5 14,9 4 2 S 1018,5 20 0,0
21.09.2018 06:00:00 20,5 15,1 4 2 W 1018,2 20 0,0
21.09.2018 05:00:00 20,6 14,7 5 3 S 1017,9 20 -
21.09.2018 04:00:00 21,0 14,6 2 1 SW 1018,0 20 0,0
21.09.2018 03:00:00 21,8 14,4 4 2 SSW 1017,9 20 0,0
21.09.2018 02:00:00 23,2 14,5 8 4 SW 1017,8 20 -
21.09.2018 01:00:00 24,6 13,5 5 3 WSW 1017,2 20 0,0
21.09.2018 00:00:00 24,3 13,8 4 2 WSW 1017,3 20 0,0
20.09.2018 23:00:00 25,4 13,6 5 3 WSW 1016,7 20 -
20.09.2018 22:00:00 25,8 14,3 11 6 W 1016,4 20 0,0
20.09.2018 21:00:00 26,9 13,6 9 5 W 1015,7 20 0,0
20.09.2018 20:00:00 27,4 14,1 9 5 WSW 1015,4 20 -
20.09.2018 19:00:00 27,7 15,7 8 4 W 1015,3 20 0,0
20.09.2018 18:00:00 29,1 15,2 8 4 WNW 1015,0 20 0,0
20.09.2018 17:00:00 29,2 14,2 5 3 WSW 1015,4 20 -

tt = temperature
td = dewpoint
ff = wind speed
dd = wind direction
ppp = reduced air pressure
vv = visibility
rr = precipitation

Next stations